This demonstration page uses our WeatherBlox Daily Observations layout. Learn more.

Left ArrowRight Arrow

47.50024, -111.30081

Hourly Observations for January 8, 2016

Temp ( °F °C ) Dew Point ( °F °C ) Humidity (%) Winds ( mph kmh ) Pressure ( in mb ) Visibility ( mi km ) Precip ( " mm )
12:33 am 00:33 Cloudy with Mist and Fog 4 -15.6 3 -16.1 96 96 SW 7 11 30.48 1032 5 8 0.00 0.03
12:53 am 00:53 Mostly Cloudy with Mist and Fog 3 -16.1 1 -17.2 91 91 SW 7 11 30.31 1026 5 8 0.00 0.03
1:05 am 01:05 Partly Cloudy with Mist and Fog 0 -17.8 -2 -18.9 91 91 SW 7 11 30.48 1032 4 6 0.00 0.00
1:53 am 01:53 Clear with Mist and Fog 2 -16.7 1 -17.2 96 96 SSW 7 11 30.30 1026 4 6 0.00 0.00
2:53 am 02:53 Cloudy 7 -13.9 4 -15.6 87 87 SSW 7 11 30.29 1026 9 14 0.00 0.00
3:53 am 03:53 Cloudy 9 -12.8 6 -14.4 88 88 SSW 7 11 30.28 1026 10 16 0.00 0.00
4:53 am 04:53 Cloudy 10 -12.2 7 -13.9 87 87 SSW 7 11 30.27 1025 10 16 0.00 0.00
5:53 am 05:53 Cloudy 11 -11.7 8 -13.3 88 88 SSW 5 7 30.26 1025 10 16 0.00 0.00
6:53 am 06:53 Cloudy 11 -11.7 7 -13.9 84 84 S 6 9 30.26 1025 10 16 0.00 0.00
7:53 am 07:53 Cloudy 12 -11.1 8 -13.3 84 84 SSW 3 6 30.26 1025 9 14 0.00 0.00
8:53 am 08:53 Cloudy 11 -11.7 7 -13.9 84 84 SW 3 6 30.26 1025 10 16 0.00 0.00
9:53 am 09:53 Cloudy 11 -11.7 7 -13.9 84 84 Calm 30.26 1025 9 14 0.00 0.00
10:53 am 10:53 Mostly Sunny N/A N/A N/A undefined N/A N/A N/A 0.00 0.00
11:53 am 11:53 Mostly Sunny N/A N/A N/A undefined N/A N/A N/A 0.00 0.00
12:53 pm 12:53 Mostly Sunny N/A N/A N/A undefined N/A N/A N/A 0.00 0.00
1:53 pm 13:53 Mostly Sunny 15 -9.4 8 -13.3 74 74 E 7 11 30.23 1024 10 16 0.00 0.00
2:53 pm 14:53 Cloudy 16 -9 12 -11 86 86 NE 7 11 30.24 1024 10 16 0.00 0.00
3:53 pm 15:53 Cloudy 13 -10.6 9 -12.8 84 84 ENE 9 15 30.24 1024 8 13 0.00 0.00
4:53 pm 16:53 Cloudy 12 -11.1 8 -13.3 84 84 ENE 8 13 30.25 1025 9 14 0.00 0.00
5:53 pm 17:53 Mostly Cloudy 10 -12.2 7 -13.9 87 87 E 5 7 30.27 1025 9 14 0.00 0.00
6:53 pm 18:53 Cloudy 12 -11.1 8 -13.3 84 84 ENE 5 7 30.27 1025 9 14 0.00 0.00
7:53 pm 19:53 Cloudy 12 -11.1 8 -13.3 84 84 NE 6 9 30.28 1026 9 14 0.00 0.00
8:53 pm 20:53 Cloudy 12 -11.1 8 -13.3 84 84 E 5 7 30.29 1026 9 14 0.00 0.00
9:53 pm 21:53 Cloudy 10 -12.2 7 -13.9 87 87 E 6 9 30.30 1026 9 14 0.00 0.00
10:53 pm 22:53 Cloudy 9 -12.8 7 -13.9 92 92 ESE 5 7 30.39 1029 9 14 0.00 0.00
11:53 pm 23:53 Cloudy 10 -12.2 7 -13.9 87 87 Calm 30.36 1028 9 14 0.00 0.00

Powered by AerisWeather